Weather History for Palm Springs, CA

Change the Weather History Date:

Friday, February 14, 2014

  Actual Average Record
Temperature  
Mean Temperature 72 °F 60 °F  
Max Temperature 89 °F 72 °F 92 °F (1957)
Min Temperature 55 °F 48 °F 29 °F (1942)
Degree Days  
Heating Degree Days 0 6  
Month to date heating degree days 59 90  
Since 1 July heating degree days 410 717  
Cooling Degree Days 7 1  
Month to date cooling degree days 23 13  
Year to date cooling degree days 60 21  
Growing Degree Days 22 (Base 50)    
Moisture  
Dew Point 24 °F    
Average Humidity 24    
Maximum Humidity 41    
Minimum Humidity 6    
Precipitation  
Precipitation 0.00 in 0.04 in 1.14 in (1980)
Month to date precipitation 0.00 0.41  
Year to date precipitation 0.00 1.41  
Since 1 July precipitation 1.26 4.21  
Snow  
Snow 0.00 in - - ()
Month to date snowfall 0.0  
Year to date snowfall 0.0  
Since 1 July snowfall 0.0  
Snow Depth 0.00 in    
Sea Level Pressure  
Sea Level Pressure 29.99 in    
Wind  
Wind Speed 5 mph (NNW)    
Max Wind Speed 9 mph    
Max Gust Speed 12 mph    
Visibility 10 miles    
Events      
T = Trace of Precipitation, MM = Missing Value Source: NWS Daily Summary

Daily Weather History Graph

Daily Weather History Graph

Search for Another Location

Airport:

Trip Planner

Search our weather history database for the weather conditions in past years. The results will help you decide how hot, cold, wet, or windy it might be!

Date:

Astronomy

Feb. 14, 2014 Rise Set
Actual Time 6:31 AM PST 5:29 PM PST
Civil Twilight 6:05 AM PST 5:55 PM PST
Nautical Twilight 5:36 AM PST 6:24 PM PST
Astronomical Twilight 5:07 AM PST 6:53 PM PST
Moon 5:34 PM PST (2/14) 6:02 AM PST (2/14)
Length of Visible Light 11h 49m
Length of Day
10h 58m
Full, 100% of the Moon is Illuminated
Feb 14
Full
Feb 14
Full
Feb 22
Last Quarter
Mar 1
New
Mar 8
First Quarter

Hourly Weather History & Observations

Time (PST) Temp. Dew Point Humidity Pressure Visibility Wind Dir Wind Speed Gust Speed Precip Events Conditions
12:53 AM 60.1 °F 33.1 °F 36% 29.99 in 10.0 mi North 3.5 mph - N/A   Clear
1:53 AM 61.0 °F 30.0 °F 31% 29.98 in 10.0 mi NW 4.6 mph - N/A   Clear
2:53 AM 60.1 °F 26.1 °F 27% 29.97 in 10.0 mi NNW 8.1 mph - N/A   Clear
3:53 AM 57.9 °F 30.9 °F 36% 29.97 in 10.0 mi NNW 4.6 mph - N/A   Clear
4:53 AM 59.0 °F 24.1 °F 26% 29.99 in 10.0 mi NNW 5.8 mph - N/A   Clear
5:53 AM 59.0 °F 26.1 °F 28% 29.99 in 10.0 mi NW 5.8 mph - N/A   Clear
6:53 AM 55.9 °F 32.0 °F 40% 30.01 in 10.0 mi West 3.5 mph - N/A   Clear
7:53 AM 64.0 °F 23.0 °F 21% 30.04 in 10.0 mi NW 4.6 mph - N/A   Clear
8:53 AM 73.0 °F 26.1 °F 17% 30.04 in 10.0 mi North 6.9 mph - N/A   Scattered Clouds
9:53 AM 80.1 °F 19.9 °F 11% 30.04 in 10.0 mi NNW 5.8 mph - N/A   Partly Cloudy
10:53 AM 82.9 °F 19.9 °F 10% 30.03 in 10.0 mi Calm Calm - N/A   Clear
11:53 AM 84.9 °F 21.0 °F 10% 30.01 in 10.0 mi Calm Calm - N/A   Clear
12:53 PM 88.0 °F 19.0 °F 8% 29.98 in 10.0 mi SSW 3.5 mph - N/A   Scattered Clouds
1:53 PM 88.0 °F 15.1 °F 7% 29.96 in 10.0 mi SE 6.9 mph - N/A   Scattered Clouds
2:53 PM 89.1 °F 12.0 °F 6% 29.95 in 10.0 mi ESE 4.6 mph - N/A   Clear
3:53 PM 89.1 °F 19.0 °F 8% 29.94 in 10.0 mi ESE 8.1 mph - N/A   Clear
4:53 PM 86.0 °F 28.0 °F 12% 29.94 in 10.0 mi East 8.1 mph - N/A   Clear
5:53 PM 81.0 °F 28.0 °F 14% 29.95 in 10.0 mi SE 5.8 mph - N/A   Clear
6:53 PM 77.0 °F 27.0 °F 16% 29.97 in 10.0 mi Calm Calm - N/A   Clear
7:53 PM 71.1 °F 30.9 °F 23% 29.98 in 8.0 mi Calm Calm - N/A   Clear
8:53 PM 69.1 °F 23.0 °F 18% 29.99 in 10.0 mi NNW 4.6 mph - N/A   Clear
9:53 PM 66.9 °F 23.0 °F 19% 30.00 in 10.0 mi NW 6.9 mph - N/A   Clear
10:53 PM 66.9 °F 21.0 °F 17% 29.99 in 10.0 mi NW 4.6 mph - N/A   Clear
11:53 PM 63.0 °F 21.9 °F 21% 29.99 in 10.0 mi North 5.8 mph - N/A   Clear